| time (UTC) | temp C | wind direction | speed KPH | gust KPH | rain 1hr cm | rain 24hr cm | rain mn cm | humidity % | barometer mb |
| 20260507112539 | 8 | 225 | 0.0 | 3.2 | 0.23 | 1.04 | 0.97 | 91 | 1012.0 |
| 20260507111536 | 8 | 225 | 0.0 | 3.2 | 0.23 | 1.02 | 0.94 | 91 | 1012.0 |
| 20260507110534 | 8 | 315 | 1.6 | 3.2 | 0.23 | 0.99 | 0.89 | 91 | 1011.9 |
| 20260507105531 | 8 | 270 | 0.0 | 3.2 | 0.20 | 0.94 | 0.84 | 91 | 1011.8 |
| 20260507104526 | 8 | 180 | 0.0 | 3.2 | 0.18 | 0.86 | 0.79 | 91 | 1011.7 |
| 20260507103522 | 8 | 203 | 0.0 | 3.2 | 0.18 | 0.84 | 0.76 | 91 | 1011.5 |
| 20260507102521 | 8 | 225 | 0.0 | 3.2 | 0.18 | 0.81 | 0.71 | 91 | 1011.4 |
| 20260507101516 | 8 | 270 | 0.0 | 3.2 | 0.15 | 0.79 | 0.69 | 91 | 1011.4 |
| 20260507100614 | 8 | 270 | 1.6 | 3.2 | 0.15 | 0.76 | 0.66 | 92 | 1011.3 |
| 20260507095610 | 8 | 238 | 0.0 | 3.2 | 0.13 | 0.71 | 0.64 | 92 | 1011.1 |
| 20260507094608 | 8 | 0.0 | 1.6 | 0.13 | 0.69 | 0.61 | 92 | 1011.0 | |
| 20260507093603 | 8 | 135 | 0.0 | 3.2 | 0.10 | 0.66 | 0.56 | 92 | 1010.9 |
| 20260507092621 | 8 | 0.0 | 1.6 | 0.05 | 0.64 | 0.53 | 92 | 1010.8 | |
| 20260507091556 | 8 | 0.0 | 3.2 | 0.10 | 0.64 | 0.53 | 92 | 1010.6 | |
| 20260507090554 | 8 | 0.0 | 1.6 | 0.10 | 0.61 | 0.51 | 92 | 1010.5 | |
| 20260507085549 | 8 | 273 | 1.6 | 3.2 | 0.10 | 0.61 | 0.51 | 93 | 1010.3 |
| 20260507084546 | 8 | 225 | 1.6 | 4.8 | 0.05 | 0.56 | 0.48 | 93 | 1010.2 |
| 20260507083543 | 8 | 217 | 1.6 | 3.2 | 0.05 | 0.56 | 0.48 | 93 | 1010.1 |
| 20260507082540 | 8 | 0.0 | 1.6 | 0.05 | 0.56 | 0.48 | 93 | 1009.9 | |
| 20260507081556 | 8 | 206 | 1.6 | 4.8 | 0.03 | 0.53 | 0.46 | 93 | 1009.7 |
| 20260507080533 | 8 | 248 | 1.6 | 4.8 | 0.00 | 0.51 | 0.43 | 93 | 1009.7 |
| 20260507075531 | 8 | 135 | 1.6 | 8.0 | 0.03 | 0.51 | 0.43 | 93 | 1009.5 |
| 20260507074526 | 8 | 203 | 0.0 | 3.2 | 0.05 | 0.51 | 0.43 | 93 | 1009.4 |
| 20260507073523 | 8 | 299 | 1.6 | 3.2 | 0.13 | 0.51 | 0.43 | 93 | 1009.3 |
| 20260507072519 | 8 | 230 | 1.6 | 3.2 | 0.13 | 0.51 | 0.43 | 93 | 1009.3 |
| 20260507071517 | 8 | 315 | 0.0 | 3.2 | 0.18 | 0.51 | 0.43 | 93 | 1009.3 |
| 20260507070613 | 8 | 270 | 1.6 | 3.2 | 0.23 | 0.51 | 0.43 | 92 | 1009.2 |
| 20260507065610 | 8 | 180 | 0.0 | 3.2 | 0.23 | 0.48 | 0.38 | 92 | 1009.1 |
| 20260507064607 | 8 | 6 | 3.2 | 6.4 | 0.23 | 0.46 | 0.36 | 92 | 1009.0 |
| 20260507063603 | 8 | 225 | 3.2 | 4.8 | 0.23 | 0.38 | 0.30 | 92 | 1008.8 |
| 20260507062600 | 8 | 310 | 1.6 | 3.2 | 0.28 | 0.38 | 0.30 | 91 | 1008.6 |
| 20260507061556 | 8 | 202 | 1.6 | 6.4 | 0.20 | 0.33 | 0.23 | 91 | 1008.5 |
| 20260507060553 | 8 | 270 | 1.6 | 3.2 | 0.15 | 0.28 | 0.18 | 91 | 1008.2 |
| 20260507055550 | 8 | 270 | 0.0 | 3.2 | 0.13 | 0.23 | 0.15 | 91 | 1007.9 |
| 20260507054546 | 9 | 229 | 3.2 | 6.4 | 0.10 | 0.20 | 0.13 | 91 | 1007.9 |
| 20260507053543 | 9 | 315 | 1.6 | 6.4 | 0.03 | 0.15 | 0.05 | 91 | 1007.7 |
| 20260507052540 | 10 | 0.0 | 3.2 | 0.00 | 0.13 | 0.03 | 92 | 1007.5 | |
| 20260507051537 | 10 | 0.0 | 1.6 | 0.00 | 0.13 | 0.03 | 92 | 1007.4 | |
| 20260507050533 | 10 | 150 | 0.0 | 3.2 | 0.00 | 0.13 | 0.03 | 92 | 1007.2 |
| 20260507045630 | 10 | 180 | 0.0 | 3.2 | 0.00 | 0.15 | 0.03 | 92 | 1007.2 |
| 20260507044525 | 10 | 135 | 0.0 | 3.2 | 0.00 | 0.15 | 0.03 | 92 | 1007.1 |
| 20260507043522 | 10 | 0.0 | 1.6 | 0.00 | 0.15 | 0.03 | 92 | 1006.9 | |
| 20260507042519 | 10 | 180 | 0.0 | 3.2 | 0.00 | 0.20 | 0.03 | 92 | 1006.8 |
| 20260507041515 | 10 | 0.0 | 1.6 | 0.03 | 0.23 | 0.03 | 92 | 1006.7 | |
| 20260507040634 | 10 | 45 | 3.2 | 4.8 | 0.03 | 0.23 | 0.03 | 91 | 1006.6 |
| 20260507035630 | 10 | 135 | 0.0 | 3.2 | 0.03 | 0.28 | 0.03 | 91 | 1006.6 |
| 20260507034605 | 10 | 0.0 | 1.6 | 0.03 | 0.30 | 0.03 | 91 | 1006.5 | |
| 20260507033602 | 10 | 0.0 | 3.2 | 0.03 | 0.30 | 0.03 | 91 | 1006.5 | |
| 20260507032559 | 10 | 0.0 | 3.2 | 0.03 | 0.33 | 0.03 | 92 | 1006.4 | |
| 20260507031557 | 10 | 135 | 0.0 | 3.2 | 0.00 | 0.33 | 0.00 | 92 | 1006.3 |
| 20260507030552 | 10 | 158 | 0.0 | 3.2 | 0.00 | 0.36 | 0.00 | 92 | 1006.3 |
| 20260507025550 | 10 | 0.0 | 3.2 | 0.00 | 0.43 | 0.00 | 92 | 1006.2 | |
| 20260507024545 | 10 | 0.0 | 3.2 | 0.00 | 0.43 | 0.00 | 92 | 1006.2 | |
| 20260507023542 | 10 | 0.0 | 3.2 | 0.00 | 0.43 | 0.00 | 92 | 1006.1 | |
| 20260507022539 | 10 | 0.0 | 1.6 | 0.00 | 0.46 | 0.00 | 92 | 1006.2 | |
| 20260507021537 | 10 | 0.0 | 1.6 | 0.00 | 0.46 | 0.00 | 92 | 1006.2 | |
| 20260507020532 | 10 | 0.0 | 0.0 | 0.00 | 0.53 | 0.00 | 92 | 1006.2 | |
| 20260507015528 | 11 | 0.0 | 1.6 | 0.00 | 0.61 | 0.00 | 91 | 1006.2 | |
| 20260507014525 | 11 | 0.0 | 3.2 | 0.00 | 0.66 | 0.00 | 91 | 1006.1 | |
| 20260507013522 | 11 | 0.0 | 1.6 | 0.00 | 0.71 | 0.00 | 91 | 1006.2 | |
| 20260507012520 | 11 | 0.0 | 3.2 | 0.00 | 0.76 | 0.00 | 90 | 1006.1 | |
| 20260507011517 | 11 | 0.0 | 3.2 | 0.00 | 0.79 | 0.00 | 90 | 1006.0 | |
| 20260507010612 | 11 | 0.0 | 1.6 | 0.00 | 0.81 | 0.00 | 90 | 1006.0 | |
| 20260507005630 | 11 | 0.0 | 0.0 | 0.00 | 0.84 | 0.00 | 89 | 1006.0 | |
| 20260507004607 | 11 | 0.0 | 0.0 | 0.00 | 0.84 | 0.00 | 89 | 1005.8 | |
| 20260507003622 | 11 | 0.0 | 0.0 | 0.00 | 0.84 | 0.00 | 89 | 1005.8 | |
| 20260507002600 | 11 | 0.0 | 1.6 | 0.00 | 0.84 | 0.00 | 89 | 1005.8 | |
| 20260507001555 | 11 | 0.0 | 1.6 | 0.00 | 0.86 | 0.00 | 90 | 1005.8 | |
| 20260507000613 | 11 | 0.0 | 0.0 | 0.00 | 0.89 | 0.00 | 90 | 1005.8 | |
| 20260506235550 | 11 | 0.0 | 1.6 | 0.00 | 0.89 | 0.00 | 90 | 1005.8 | |
| 20260506234545 | 11 | 0.0 | 1.6 | 0.00 | 0.94 | 0.00 | 91 | 1005.7 | |
| 20260506233542 | 11 | 0.0 | 1.6 | 0.00 | 0.94 | 0.00 | 91 | 1005.7 | |
| 20260506232540 | 11 | 0.0 | 1.6 | 0.00 | 0.97 | 0.00 | 91 | 1005.6 | |
| 20260506231537 | 11 | 0.0 | 1.6 | 0.00 | 0.97 | 0.00 | 91 | 1005.5 | |
| 20260506230532 | 11 | 0.0 | 1.6 | 0.00 | 0.99 | 0.00 | 92 | 1005.6 | |
| 20260506225558 | 11 | 0.0 | 1.6 | 0.00 | 1.02 | 0.00 | 92 | 1005.7 | |
| 20260506224555 | 11 | 0.0 | 1.6 | 0.00 | 1.04 | 0.00 | 92 | 1005.6 | |
| 20260506223551 | 11 | 0.0 | 1.6 | 0.00 | 1.09 | 0.00 | 92 | 1005.5 | |
| 20260506222548 | 11 | 315 | 1.6 | 3.2 | 0.00 | 1.12 | 0.00 | 92 | 1005.4 |
| 20260506221547 | 11 | 0.0 | 0.0 | 0.00 | 1.12 | 0.00 | 92 | 1005.2 | |
| 20260506220541 | 11 | 0.0 | 0.0 | 0.00 | 1.19 | 0.00 | 91 | 1005.1 | |
| 20260506215538 | 11 | 170 | 1.6 | 3.2 | 0.00 | 1.19 | 1.19 | 91 | 1005.1 |
| 20260506214535 | 11 | 0.0 | 0.0 | 0.00 | 1.22 | 1.19 | 91 | 1005.1 | |
| 20260506213532 | 11 | 0.0 | 1.6 | 0.00 | 1.27 | 1.19 | 91 | 1005.0 | |
| 20260506212528 | 12 | 0.0 | 0.0 | 0.00 | 1.27 | 1.19 | 91 | 1004.8 | |
| 20260506211526 | 12 | 180 | 0.0 | 3.2 | 0.00 | 1.30 | 1.19 | 91 | 1004.8 |
| 20260506210521 | 12 | 0.0 | 1.6 | 0.00 | 1.30 | 1.19 | 91 | 1004.7 | |
| 20260506205518 | 12 | 90 | 0.0 | 3.2 | 0.00 | 1.32 | 1.19 | 90 | 1004.6 |
| 20260506204616 | 12 | 0.0 | 3.2 | 0.00 | 1.32 | 1.19 | 88 | 1004.7 | |
| 20260506203611 | 12 | 0.0 | 1.6 | 0.00 | 1.32 | 1.19 | 88 | 1004.8 | |
| 20260506202608 | 12 | 150 | 0.0 | 3.2 | 0.00 | 1.32 | 1.19 | 88 | 1004.9 |
| 20260506201606 | 12 | 360 | 0.0 | 3.2 | 0.00 | 1.32 | 1.19 | 89 | 1004.8 |
| 20260506200603 | 12 | 180 | 1.6 | 3.2 | 0.00 | 1.32 | 1.19 | 89 | 1004.8 |
| 20260506195600 | 12 | 303 | 1.6 | 6.4 | 0.00 | 1.32 | 1.19 | 89 | 1004.6 |
| 20260506194554 | 12 | 270 | 1.6 | 6.4 | 0.00 | 1.32 | 1.19 | 89 | 1004.7 |
| 20260506193551 | 12 | 135 | 0.0 | 3.2 | 0.00 | 1.32 | 1.19 | 89 | 1004.6 |
| 20260506192609 | 13 | 135 | 0.0 | 3.2 | 0.00 | 1.32 | 1.19 | 89 | 1004.5 |
| 20260506191544 | 13 | 0.0 | 1.6 | 0.00 | 1.32 | 1.19 | 89 | 1004.4 | |
| 20260506190541 | 13 | 265 | 1.6 | 3.2 | 0.00 | 1.32 | 1.19 | 89 | 1004.1 |
| 20260506185539 | 13 | 135 | 0.0 | 3.2 | 0.00 | 1.32 | 1.19 | 88 | 1003.9 |
| 20260506184534 | 13 | 225 | 0.0 | 3.2 | 0.00 | 1.32 | 1.19 | 87 | 1003.6 |
| 20260506183530 | 13 | 128 | 0.0 | 3.2 | 0.00 | 1.32 | 1.19 | 88 | 1003.5 |
| 20260506182527 | 13 | 153 | 1.6 | 4.8 | 0.03 | 1.32 | 1.19 | 88 | 1003.2 |
| 20260506181524 | 13 | 313 | 4.8 | 6.4 | 0.05 | 1.32 | 1.19 | 87 | 1003.4 |
| 20260506180522 | 13 | 180 | 3.2 | 3.2 | 0.10 | 1.32 | 1.19 | 86 | 1003.2 |
| 20260506175517 | 14 | 225 | 0.0 | 3.2 | 0.10 | 1.32 | 1.19 | 85 | 1003.1 |
| 20260506174613 | 14 | 270 | 0.0 | 4.8 | 0.10 | 1.32 | 1.19 | 85 | 1003.2 |
| 20260506173612 | 14 | 237 | 1.6 | 4.8 | 0.10 | 1.32 | 1.19 | 83 | 1003.1 |
| 20260506172607 | 15 | 168 | 0.0 | 3.2 | 0.05 | 1.30 | 1.17 | 82 | 1003.0 |
| 20260506171604 | 15 | 213 | 0.0 | 3.2 | 0.03 | 1.27 | 1.14 | 81 | 1003.1 |
| 20260506170601 | 15 | 230 | 1.6 | 3.2 | 0.00 | 1.22 | 1.12 | 81 | 1003.4 |
| 20260506165558 | 15 | 259 | 1.6 | 4.8 | 0.00 | 1.22 | 1.12 | 80 | 1003.1 |
| 20260506164553 | 15 | 252 | 1.6 | 4.8 | 0.00 | 1.22 | 1.12 | 78 | 1002.9 |
| 20260506163551 | 16 | 231 | 3.2 | 6.4 | 0.00 | 1.22 | 1.12 | 76 | 1003.0 |
| 20260506162547 | 16 | 206 | 3.2 | 6.4 | 0.00 | 1.22 | 1.12 | 75 | 1002.9 |
| 20260506161605 | 16 | 315 | 1.6 | 3.2 | 0.00 | 1.22 | 1.12 | 74 | 1002.8 |
| 20260506160540 | 17 | 315 | 3.2 | 6.4 | 0.00 | 1.22 | 1.12 | 73 | 1002.7 |
| 20260506155537 | 17 | 135 | 1.6 | 4.8 | 0.00 | 1.22 | 1.12 | 71 | 1002.6 |
| 20260506154533 | 17 | 135 | 1.6 | 3.2 | 0.00 | 1.22 | 1.12 | 69 | 1002.6 |
| 20260506153530 | 18 | 128 | 1.6 | 4.8 | 0.00 | 1.22 | 1.12 | 66 | 1002.7 |
| 20260506152528 | 18 | 311 | 1.6 | 3.2 | 0.00 | 1.22 | 1.12 | 63 | 1002.7 |
| 20260506151525 | 20 | 237 | 3.2 | 6.4 | 0.00 | 1.22 | 1.12 | 61 | 1002.7 |
| 20260506150520 | 21 | 189 | 3.2 | 6.4 | 0.00 | 1.22 | 1.12 | 61 | 1002.7 |
| 20260506145518 | 20 | 105 | 1.6 | 4.8 | 0.00 | 1.22 | 1.12 | 67 | 1002.9 |
| 20260506144655 | 18 | 255 | 0.0 | 4.8 | 0.00 | 1.22 | 1.12 | 66 | 1002.9 |
| 20260506143610 | 18 | 141 | 1.6 | 3.2 | 0.00 | 1.22 | 1.12 | 65 | 1002.7 |
| 20260506142607 | 19 | 124 | 1.6 | 3.2 | 0.00 | 1.22 | 1.12 | 64 | 1002.8 |
| 20260506141605 | 20 | 177 | 1.6 | 4.8 | 0.00 | 1.22 | 1.12 | 62 | 1002.9 |
| 20260506140600 | 20 | 135 | 3.2 | 3.2 | 0.00 | 1.22 | 1.12 | 60 | 1003.0 |
| 20260506135557 | 21 | 306 | 3.2 | 6.4 | 0.00 | 1.22 | 1.12 | 60 | 1003.1 |
| 20260506134553 | 23 | 165 | 1.6 | 3.2 | 0.00 | 1.22 | 1.12 | 54 | 1003.1 |
| 20260506133551 | 21 | 190 | 1.6 | 4.8 | 0.00 | 1.22 | 1.12 | 63 | 1003.3 |
| 20260506132548 | 19 | 311 | 3.2 | 6.4 | 0.00 | 1.22 | 1.12 | 63 | 1003.2 |
| 20260506131605 | 20 | 253 | 3.2 | 6.4 | 0.00 | 1.22 | 1.12 | 62 | 1003.3 |
| 20260506130601 | 20 | 215 | 1.6 | 4.8 | 0.00 | 1.22 | 1.12 | 63 | 1003.3 |
| 20260506125538 | 20 | 241 | 1.6 | 4.8 | 0.00 | 1.22 | 1.12 | 64 | 1003.5 |
| 20260506124533 | 19 | 238 | 1.6 | 3.2 | 0.00 | 1.22 | 1.12 | 64 | 1003.4 |
| 20260506123529 | 18 | 289 | 3.2 | 6.4 | 0.00 | 1.22 | 1.12 | 63 | 1003.3 |
| 20260506122526 | 20 | 282 | 3.2 | 6.4 | 0.00 | 1.22 | 1.12 | 60 | 1003.4 |
| 20260506121522 | 21 | 315 | 1.6 | 4.8 | 0.00 | 1.22 | 1.12 | 61 | 1003.4 |
| 20260506120519 | 20 | 315 | 3.2 | 4.8 | 0.00 | 1.22 | 1.12 | 67 | 1003.3 |
| 20260506115516 | 18 | 315 | 3.2 | 6.4 | 0.00 | 1.22 | 1.12 | 70 | 1003.3 |
| 20260506114613 | 17 | 312 | 3.2 | 6.4 | 0.00 | 1.22 | 1.12 | 72 | 1003.4 |
| 20260506113631 | 17 | 275 | 3.2 | 6.4 | 0.00 | 1.22 | 1.12 | 72 | 1003.3 |